Temp
12 12 13 14 14 15 15 15 16 16 16 17 17 17 17 17 17 17 17 17 17 18 19 19 19 19 19 18 18 18 17 17 16 14 15 22 26 25 25 25 24 22 23 24 24 23 22 22 22 23 24 24 24 24 25 25 25 24 24 23 23 24 25 26 28 26 25 25 24 23 24 24 24 23 23 24 24 24 24 24 25 25 26 26 25 24 24 24
13 12 12 13 14 14 15 15 16 16 16 17 17 17 17 17 17 17 17 17 17 17 18 19 19 19 19 19 18 17 17 16 14 13 19 25 26 25 25 24 23 22 23 23 23 23 23 23 22 23 24 24 24 24 25 25 26 24 24 24 23 25 27 27 28 26 26 25 24 24 24 25 24 24 24 24 24 24 24 24 25 25 25 25 25 25 24 24
12 13 13 13 14 14 15 15 15 16 16 17 17 17 17 17 17 17 17 17 17 17 18 18 19 19 19 19 17 17 16 14 16 19 24 27 25 25 25 24 24 23 23 24 24 24 24 23 23 24 24 24 25 25 25 26 26 25 25 24 25 27 27 27 27 27 26 25 24 24 25 25 24 24 24 24 24 24 24 24 25 24 24 24 25 25 25 24
11 13 13 13 13 14 15 15 15 16 16 17 17 17 18 18 17 17 17 17 17 17 18 18 19 19 19 18 17 17 15 17 22 25 26 27 26 25 25 25 24 23 24 24 24 24 25 24 24 24 24 24 25 25 25 26 26 26 25 25 26 27 27 28 27 26 26 25 25 24 25 24 24 24 24 25 24 24 24 25 26 24 24 24 24 25 25 24
10 13 13 13 13 14 14 15 15 16 16 17 17 17 18 18 18 17 17 17 17 17 17 18 18 19 18 18 17 16 16 22 26 26 26 27 26 25 25 25 24 24 24 24 24 24 24 24 24 24 24 24 24 25 25 26 27 26 26 26 27 27 27 28 26 26 26 25 25 24 25 24 24 24 24 25 25 24 25 26 26 25 25 25 25 25 25 24
9 12 13 12 13 13 14 15 15 15 16 16 17 17 18 18 18 18 17 17 17 17 17 18 18 18 18 17 17 15 18 24 25 26 27 26 26 26 25 25 25 24 24 24 24 24 24 24 24 24 24 24 24 25 26 27 27 26 26 27 27 28 28 27 26 26 26 25 25 25 25 24 24 24 24 25 25 25 25 26 27 26 26 25 25 25 25 24
9 12 12 12 12 13 14 15 15 16 16 16 17 17 18 18 18 18 18 17 17 17 17 18 17 17 17 17 16 16 19 24 26 26 27 26 26 26 25 25 24 24 24 24 24 24 24 24 24 24 24 25 25 25 26 27 27 26 27 28 28 29 28 27 27 26 26 25 25 25 25 24 24 24 25 25 25 24 24 25 27 27 26 26 26 25 25 24
9 11 12 12 12 13 14 15 15 16 16 17 17 17 18 18 18 18 18 18 18 18 17 17 17 17 17 16 17 18 20 25 27 26 26 26 26 25 25 24 24 23 23 23 24 24 24 24 24 25 25 25 25 26 26 27 27 27 27 28 29 30 29 27 27 26 26 26 25 25 25 25 25 25 25 25 25 24 24 24 26 27 26 26 25 26 25 24
9 11 12 12 12 13 13 14 15 16 16 17 17 18 18 18 18 18 19 18 18 18 18 17 17 16 16 16 17 21 24 27 27 27 27 26 25 25 25 24 24 23 23 23 24 24 24 24 25 25 25 25 26 26 27 27 27 28 29 29 30 30 29 27 26 26 26 26 25 26 25 25 25 26 25 26 25 24 24 24 26 26 26 26 26 26 25 24
9 12 13 12 12 13 13 14 15 16 16 17 17 18 19 19 19 19 19 19 19 19 18 17 17 16 16 16 18 23 27 27 27 27 27 26 25 24 24 24 24 23 23 23 23 24 25 25 25 26 26 26 27 27 28 28 28 30 30 30 30 30 28 27 26 26 26 26 26 26 25 25 25 26 26 26 25 24 24 24 25 27 26 26 26 26 26 25
9 12 13 13 13 13 14 14 15 16 16 17 18 19 19 19 19 19 19 19 19 19 18 17 17 16 16 16 20 25 27 27 27 27 26 26 26 25 25 24 24 23 23 22 23 24 25 25 26 27 26 27 27 27 28 29 29 30 30 30 30 29 27 27 27 26 26 26 26 27 25 25 25 26 26 26 25 25 24 24 25 26 27 26 27 26 26 25
10 12 13 14 14 14 14 15 15 16 17 18 19 20 20 20 20 20 20 20 20 19 18 17 17 16 16 17 20 25 27 27 27 27 26 26 26 26 26 25 25 24 23 22 22 24 25 26 27 27 26 27 27 27 29 29 29 30 30 30 28 28 27 27 27 26 26 26 26 27 25 25 25 25 27 26 25 25 24 24 25 26 27 27 27 26 26 25
10 12 14 14 15 15 15 15 16 17 18 19 20 20 21 20 21 21 21 20 20 20 19 17 17 16 17 19 22 25 27 26 26 26 26 26 26 26 25 25 25 25 24 24 23 24 25 26 26 26 27 27 26 27 29 29 29 30 30 29 27 27 26 27 27 26 27 26 27 27 24 24 25 26 27 26 25 25 24 24 25 26 27 27 27 26 26 26
10 12 14 14 15 15 16 16 17 17 18 19 20 21 21 21 22 22 22 21 21 20 19 17 17 16 17 21 25 26 26 26 25 25 25 25 25 25 24 24 24 25 25 25 25 25 25 26 26 26 26 27 27 27 28 28 29 30 29 29 27 24 25 28 27 26 27 27 28 27 24 24 26 26 27 26 26 26 25 25 26 27 27 27 27 27 26 26
11 13 14 15 15 16 16 17 18 18 19 20 21 22 22 22 22 22 22 21 20 20 19 17 16 16 18 22 25 26 26 26 26 26 26 25 25 24 24 23 24 24 25 24 25 26 26 26 26 26 26 27 27 27 27 28 29 29 27 25 26 24 25 28 27 27 27 27 28 27 24 26 27 27 27 26 26 27 26 26 26 26 27 28 27 27 26 26
13 15 15 15 16 16 16 17 18 18 19 21 22 22 22 22 22 22 22 21 20 19 18 17 16 16 19 23 26 26 27 27 27 28 27 26 26 26 25 24 24 23 24 24 25 27 27 27 27 27 27 27 27 26 27 26 26 28 26 23 24 25 25 26 27 28 28 27 27 27 25 26 28 27 27 26 26 27 26 26 26 26 27 28 27 27 27 26
14 15 15 16 16 16 16 17 18 19 20 21 22 22 22 21 21 21 21 20 19 18 18 17 16 17 21 25 26 26 27 27 28 28 28 27 27 28 26 24 24 23 23 25 25 26 27 27 27 27 27 26 27 27 25 22 22 25 26 24 25 26 25 25 26 28 28 27 27 27 26 27 28 28 27 26 26 26 26 26 26 26 26 28 28 27 27 27
14 15 15 16 16 17 17 18 18 19 20 22 22 22 22 20 20 21 20 18 18 17 17 17 17 19 22 25 25 25 26 27 28 28 28 28 28 28 27 26 25 24 24 25 26 26 26 27 27 26 26 26 27 27 23 22 23 23 24 24 24 26 26 25 26 28 28 28 27 26 26 27 28 28 27 27 27 26 26 26 26 25 26 27 28 27 27 27
14 14 15 16 17 17 17 18 18 19 20 22 22 22 21 20 20 20 19 18 18 20 20 19 19 21 23 24 24 24 26 27 28 28 28 28 28 28 29 27 26 25 25 25 25 26 26 26 26 25 25 26 27 27 25 25 26 25 25 25 24 24 25 27 29 29 28 27 27 27 26 27 28 28 28 27 27 26 26 26 25 26 26 27 27 27 27 27
13 14 14 15 17 17 18 18 18 19 20 22 22 21 21 20 20 21 19 19 20 22 22 21 21 22 23 23 24 25 26 27 28 28 28 28 28 28 28 27 26 26 25 25 25 26 26 25 24 24 24 26 27 27 27 27 27 27 26 25 25 24 24 28 30 30 29 27 27 28 27 27 28 27 28 28 28 27 26 26 25 26 26 27 27 27 27 28
13 13 14 15 16 17 18 18 19 19 19 20 21 20 20 20 20 21 21 21 21 21 22 22 21 22 23 24 24 25 26 26 27 28 28 28 28 27 27 27 26 25 25 26 26 26 26 24 24 25 25 26 27 27 27 27 27 27 26 25 24 24 25 28 30 30 30 27 27 28 28 27 28 28 28 28 28 27 27 26 26 26 27 27 28 27 27 28
12 13 13 14 16 17 18 18 19 19 19 20 20 19 20 20 21 21 21 21 21 21 21 22 21 22 23 23 24 25 25 26 27 27 28 28 27 27 27 26 25 25 25 25 25 25 24 23 24 26 26 26 26 26 27 27 27 27 26 25 23 24 26 28 30 30 30 27 27 29 27 27 28 28 28 28 28 28 28 27 27 27 27 27 28 27 27 27
12 13 13 14 16 17 18 19 19 19 19 19 19 19 20 21 22 22 21 21 21 21 22 22 22 22 23 24 26 25 25 26 27 27 28 27 27 27 27 26 25 25 25 25 25 23 22 23 26 26 25 26 26 26 26 26 26 26 26 24 23 25 25 25 28 31 30 28 29 29 28 27 28 28 28 28 29 29 29 28 28 28 28 28 28 28 27 27
13 13 13 14 16 17 18 19 19 19 19 19 18 20 21 21 21 22 21 20 20 21 22 22 23 24 25 26 26 26 26 26 26 27 27 27 27 26 26 26 25 25 25 25 25 24 24 25 27 26 25 26 26 26 26 25 25 26 26 24 24 26 26 25 28 30 30 29 30 29 25 25 27 27 27 28 29 29 29 29 28 28 28 28 28 28 28 27
13 13 13 14 15 17 18 18 19 19 19 19 20 21 21 21 21 21 21 20 20 21 22 23 23 25 26 26 26 27 26 26 27 27 27 27 27 26 26 26 25 25 25 25 25 24 25 26 27 26 26 26 26 26 26 25 24 24 26 26 26 27 27 27 28 28 26 25 29 28 22 22 26 27 27 28 28 28 28 28 28 27 28 28 28 28 28 28
13 13 14 13 15 17 18 18 18 18 18 19 21 21 21 21 21 21 21 20 20 23 23 23 23 25 25 25 26 26 26 26 27 27 27 28 28 27 26 26 26 25 26 25 25 25 26 26 26 26 26 26 26 25 26 26 24 22 26 28 28 28 27 27 27 26 23 23 28 29 23 21 24 25 27 28 28 28 28 28 28 27 27 28 28 28 28 28
13 13 13 13 14 15 17 18 17 17 19 20 20 20 21 21 21 21 21 19 20 23 24 23 24 25 25 25 25 26 25 25 27 27 27 28 27 27 26 26 26 26 26 26 24 24 27 27 26 26 26 26 25 25 26 27 24 23 27 29 28 28 27 27 27 25 25 26 27 29 26 22 22 24 28 28 27 28 28 28 28 28 27 27 28 28 28 28
13 14 13 13 14 14 14 15 15 16 19 20 20 20 21 21 21 21 20 20 21 24 24 24 24 24 25 25 25 26 25 25 26 26 27 27 27 27 27 26 26 26 27 26 23 24 27 27 27 27 26 25 25 26 27 27 25 26 28 29 29 29 29 29 28 25 26 25 23 25 26 23 21 24 28 28 27 27 28 28 28 28 27 27 28 28 28 28
14 14 13 14 15 15 14 14 15 17 20 20 20 20 21 21 21 21 20 20 22 24 24 24 24 24 25 25 25 26 26 26 26 26 27 27 26 27 27 26 26 26 26 25 25 26 27 27 28 27 26 26 27 28 28 27 27 28 29 28 29 29 29 29 28 26 25 23 22 23 25 23 22 23 25 26 26 26 28 28 28 28 28 28 28 28 28 28
15 15 15 15 15 15 14 14 17 19 20 19 20 20 21 21 21 20 20 20 22 23 23 24 24 24 25 25 25 25 26 26 26 27 27 26 25 25 26 25 25 26 26 25 26 26 26 27 28 28 28 28 29 28 28 27 28 29 29 29 28 28 29 28 27 26 23 22 22 24 24 24 22 23 24 26 27 28 28 28 28 28 28 28 28 28 28 28
16 16 16 16 16 15 15 16 19 20 19 19 20 20 21 21 20 20 20 21 23 22 23 24 24 25 25 25 25 25 25 26 26 26 25 24 23 23 24 24 24 25 24 24 25 25 26 27 27 28 28 28 28 28 28 28 28 28 29 28 26 25 25 25 24 24 22 21 23 24 25 24 22 23 26 27 29 30 29 29 29 29 28 28 28 28 28 28
18 18 18 18 18 18 17 19 20 19 19 19 19 20 21 20 20 20 20 22 22 21 23 24 24 25 25 25 25 25 25 25 25 25 23 22 22 22 22 21 22 22 22 22 23 24 26 27 26 27 27 27 26 27 28 28 28 27 27 26 23 22 22 22 22 22 22 22 23 25 25 23 22 26 29 29 29 30 30 30 29 29 29 28 28 28 28 29
19 19 19 19 20 20 20 20 20 19 20 19 19 20 21 20 20 20 20 21 21 22 23 24 24 24 24 24 24 24 24 24 24 23 22 22 21 21 21 21 21 21 21 21 21 22 24 25 25 26 27 26 25 25 25 26 27 27 25 24 22 21 21 21 21 21 22 22 23 25 25 23 23 28 32 31 30 30 30 30 30 30 29 29 28 28 29 29
20 20 20 20 20 21 21 21 20 20 19 18 20 21 20 19 19 20 20 20 21 23 23 23 23 24 24 24 24 24 23 22 22 22 22 21 21 20 21 21 21 21 21 21 21 21 21 22 24 25 25 25 25 24 24 24 26 27 27 26 24 22 22 22 21 22 22 22 23 24 24 22 23 26 30 30 29 30 30 31 30 30 30 29 29 29 29 29
21 21 21 21 21 21 21 21 21 20 18 18 20 20 19 19 19 20 20 20 21 22 22 22 22 23 23 23 23 24 23 21 21 21 20 20 19 19 20 20 20 20 20 21 21 21 21 21 23 24 24 24 24 24 25 25 25 26 27 26 24 24 24 22 22 22 22 22 22 23 23 24 26 27 28 28 28 29 29 30 30 30 30 30 29 29 29 29
21 22 22 22 22 22 22 21 21 20 18 20 21 19 19 19 19 20 20 21 21 21 22 22 21 21 21 21 22 23 23 22 21 21 20 19 19 18 19 20 20 20 19 20 21 20 20 21 23 24 24 25 23 24 25 24 24 25 25 23 24 25 25 23 21 22 22 22 22 22 23 25 26 27 28 28 27 28 28 29 29 30 30 29 29 29 29 29
21 21 21 22 22 22 22 21 21 20 19 20 20 19 20 20 20 20 21 21 22 22 22 21 20 20 20 20 20 21 23 23 22 21 19 19 19 18 18 20 20 20 19 20 21 20 20 21 22 22 23 24 24 24 25 24 24 24 23 23 25 25 25 24 22 22 22 21 22 22 22 22 22 23 26 27 27 27 27 27 27 28 29 29 29 29 29 29
19 20 20 21 22 22 22 21 21 20 20 21 20 20 20 20 20 20 20 21 22 21 21 20 20 20 19 20 20 20 21 21 21 20 19 18 19 18 18 19 20 20 19 20 21 19 19 21 21 21 21 23 23 24 24 24 24 24 23 24 24 23 23 23 22 22 21 21 22 22 22 21 21 22 24 26 26 26 26 26 26 26 27 29 29 29 29 29
18 20 21 22 22 22 22 21 21 21 21 20 20 20 20 20 20 20 20 21 21 21 20 20 20 20 19 19 19 19 20 19 19 19 18 18 18 19 18 18 19 20 19 20 20 19 19 20 21 21 21 22 23 22 22 22 23 24 23 23 23 22 22 22 22 22 22 21 21 22 21 21 22 23 24 25 26 26 25 25 25 25 25 27 29 29 29 29
16 20 22 21 21 22 22 21 21 21 21 20 19 20 20 20 20 20 20 21 21 20 20 19 19 20 19 19 19 19 19 18 18 18 17 17 17 19 18 18 19 19 19 19 19 19 19 20 20 21 21 21 21 21 21 20 21 21 21 20 21 21 22 22 22 22 22 22 21 21 21 21 23 25 25 25 26 26 25 24 24 24 24 25 28 29 29 29
15 20 21 21 21 21 21 21 21 20 20 19 20 20 20 20 20 20 20 21 21 20 20 19 19 19 19 19 19 18 18 17 17 17 17 17 17 18 18 18 18 19 19 19 19 19 19 18 19 20 20 21 21 21 21 21 21 20 20 20 20 20 21 21 22 21 21 21 21 21 21 21 24 26 24 25 26 25 25 24 23 24 24 24 26 29 29 29
17 20 20 21 22 21 21 20 20 20 19 19 20 20 20 20 20 19 20 20 20 20 20 19 19 18 18 18 18 18 18 17 17 17 17 17 17 17 18 18 18 19 19 18 18 19 18 18 18 19 19 19 20 20 20 21 21 20 20 20 20 20 20 20 20 21 21 21 21 21 20 22 25 26 24 25 25 24 24 24 23 23 23 23 24 27 29 29
18 20 21 22 22 22 21 19 19 19 19 20 20 20 20 20 19 19 19 19 20 19 19 19 19 18 18 18 18 18 17 17 17 17 17 17 17 17 18 19 19 19 19 18 18 19 19 17 18 19 19 19 20 20 20 20 20 19 19 20 20 20 20 20 20 20 20 20 20 21 20 22 25 25 24 25 25 24 23 23 23 23 23 23 23 24 26 27
15 16 19 21 22 22 20 18 19 19 19 20 19 19 20 19 18 18 18 18 19 19 18 18 18 18 18 18 18 17 17 17 17 17 17 17 18 18 18 19 19 19 19 18 18 19 19 17 18 19 19 19 20 20 20 19 18 18 18 19 20 20 20 20 20 20 20 20 20 20 20 21 23 24 24 24 24 23 22 22 23 23 22 22 22 22 22 23
16 16 17 19 20 20 19 18 19 19 18 18 18 18 19 19 18 18 18 18 18 18 18 18 18 18 18 18 17 17 17 17 17 17 17 17 17 18 18 18 19 19 19 19 19 19 18 17 17 18 18 18 18 18 18 17 17 17 18 19 19 20 20 20 20 20 20 19 19 20 20 20 22 23 23 23 22 22 21 21 22 22 22 22 22 21 21 21
18 18 17 19 19 18 17 17 18 18 18 17 17 17 17 17 18 18 18 18 18 18 18 18 18 18 18 17 17 16 17 17 17 17 17 17 17 18 18 18 19 19 19 19 19 18 18 16 17 17 17 17 17 17 17 17 16 17 18 18 19 19 20 20 19 19 19 19 19 20 20 20 22 23 22 22 22 21 20 20 20 21 21 21 21 21 21 20
17 17 16 17 18 17 17 17 17 17 17 17 17 16 16 16 17 18 18 18 18 18 18 17 17 18 17 17 16 16 16 16 16 16 16 16 17 17 18 18 18 19 19 19 18 18 17 16 16 16 16 16 16 16 17 17 17 17 17 17 18 18 19 19 19 19 19 19 19 20 20 19 21 22 22 21 21 21 20 19 20 20 21 21 21 21 20 20
16 16 15 15 17 17 17 16 17 17 17 17 16 16 16 16 16 17 18 18 18 18 18 17 16 17 17 17 16 16 16 15 16 16 16 16 16 17 17 17 17 18 18 18 18 17 17 16 16 16 16 15 16 16 17 16 16 16 17 17 17 18 18 19 19 20 20 19 20 20 20 20 21 22 22 21 21 21 20 19 19 20 21 21 20 20 20 20
15 15 15 15 16 17 16 17 17 16 16 17 16 16 16 16 16 16 17 18 18 18 17 16 16 16 17 17 16 16 15 15 15 15 16 16 15 16 16 16 17 17 18 18 17 17 17 16 16 16 15 15 16 16 16 16 16 16 16 17 17 18 18 19 19 20 20 19 20 20 20 20 22 21 21 21 21 20 20 19 19 18 19 20 20 20 19 19
14 15 15 16 17 17 17 17 16 16 16 16 16 16 15 15 16 16 17 17 17 17 17 17 16 16 16 17 16 16 15 16 16 15 16 16 15 16 16 16 16 17 17 17 17 17 17 16 16 16 15 15 15 15 16 16 15 16 16 16 17 18 18 19 19 19 19 19 20 19 19 21 21 20 20 20 20 19 19 19 18 18 18 18 19 19 19 19
13 13 13 15 17 16 16 17 16 15 16 16 16 16 16 16 16 16 17 17 16 17 17 17 17 16 16 17 17 16 16 17 17 17 17 16 16 16 16 16 16 17 17 17 17 17 17 16 16 16 15 14 15 15 15 15 15 16 16 16 17 18 18 18 19 19 19 19 19 19 19 19 19 19 19 20 19 18 18 18 18 17 17 17 18 18 18 18
13 12 12 14 16 15 15 16 16 15 15 16 16 16 16 16 16 16 17 17 17 16 17 17 17 17 16 17 17 17 17 18 18 17 17 17 17 17 16 16 16 16 16 16 16 16 16 16 15 15 14 14 14 15 15 15 16 16 16 17 17 18 17 17 18 18 19 18 19 19 19 19 18 18 19 19 18 17 17 17 17 17 17 17 17 17 17 18
Height
805 803 802 800 799 798 796 794 793 791 790 789 787 786 785 784 781 780 778 776 775 773 772 771 769 769 769 769 768 767 767 766 765 766 763 754 751 754 756 758 759 760 761 763 765 767 770 773 773 774 777 779 781 781 781 780 779 787 796 805 807 802 796 786 783 783 783 786 786 785 783 786 791 789 785 784 788 790 792 791 788 785 784 787 792 796 799 801
805 803 801 800 799 797 796 794 792 791 789 788 786 785 784 783 781 779 777 776 774 773 771 770 768 768 768 768 767 766 766 765 764 763 755 748 750 753 755 757 759 760 760 762 764 765 768 772 772 774 777 781 782 781 783 780 780 790 796 802 802 792 784 775 775 776 777 782 783 782 782 784 787 788 786 790 796 794 796 796 791 792 791 791 794 797 800 802
804 803 801 799 798 796 795 793 791 790 788 787 786 784 783 782 780 779 777 775 773 772 771 769 768 767 767 767 766 765 765 764 763 757 748 746 749 750 754 757 758 759 760 762 763 764 767 769 771 773 778 783 782 781 784 780 780 786 792 801 794 780 777 771 771 772 772 776 780 783 781 784 786 785 786 791 798 797 798 797 794 797 796 794 796 797 800 802
804 802 800 799 797 795 794 792 791 789 787 786 785 783 782 781 779 778 776 774 773 772 770 769 768 767 766 766 766 765 764 764 759 750 746 747 748 750 753 756 757 760 761 762 764 766 767 769 771 773 779 785 782 782 785 781 780 783 787 794 783 775 778 773 770 770 770 773 778 781 781 787 786 784 787 790 798 801 797 793 791 794 793 793 796 796 799 802
803 801 800 798 796 795 793 791 789 788 786 785 784 782 781 780 778 777 775 774 773 771 770 769 767 766 766 765 766 765 764 767 757 746 748 747 748 751 753 755 757 759 761 763 764 766 768 769 771 775 780 785 785 784 785 777 776 783 782 780 775 775 779 773 770 770 770 773 776 780 783 786 785 785 788 788 795 798 792 788 786 787 788 790 792 794 798 801
803 800 799 797 795 794 792 790 788 786 785 783 782 781 780 779 777 776 774 773 772 771 770 769 768 767 766 765 766 764 765 766 753 746 748 748 749 751 753 756 757 759 761 763 764 766 768 769 773 779 782 784 786 785 782 774 774 785 781 773 772 773 775 771 769 771 771 774 778 779 780 780 785 789 787 786 789 788 784 783 782 784 786 789 791 794 797 800
802 799 798 796 794 793 790 789 787 785 784 782 781 779 778 777 776 775 773 772 771 770 770 769 768 767 766 766 765 765 765 759 747 747 748 748 751 751 754 756 756 759 761 762 763 766 768 771 775 778 782 785 785 782 779 774 774 784 782 773 769 768 770 769 768 770 771 775 777 775 777 780 786 788 785 785 786 783 781 779 779 783 786 789 792 794 798 800
800 799 797 795 793 791 789 788 786 784 782 780 779 778 777 776 774 773 772 771 770 769 769 768 768 767 766 766 765 766 764 754 745 747 747 748 751 752 755 756 757 759 760 762 762 764 768 772 775 775 783 784 780 779 776 777 778 780 779 771 766 765 765 765 767 771 772 775 775 775 780 782 781 782 784 785 783 781 780 779 779 782 787 790 793 795 798 801
799 798 795 794 792 790 788 786 784 783 781 778 777 776 775 774 773 772 771 770 769 769 768 767 767 766 767 766 766 766 758 748 745 747 747 748 750 751 754 754 756 758 760 762 762 765 767 770 772 772 779 779 777 778 774 780 782 774 771 767 765 764 762 765 768 771 772 774 775 779 784 783 778 780 786 783 780 780 779 782 782 783 789 791 793 794 797 801
798 796 794 793 790 789 787 785 783 781 779 777 775 774 773 772 771 770 769 769 768 767 767 767 766 765 767 766 767 764 751 744 746 747 747 748 749 751 753 753 755 756 759 761 762 763 763 766 768 766 773 776 774 775 773 778 775 765 765 764 761 762 761 764 769 770 772 774 774 780 786 784 778 782 789 782 776 779 781 786 785 785 789 790 792 794 796 800
797 795 793 791 789 787 785 783 781 779 777 775 773 772 770 769 769 768 767 767 767 766 766 766 765 766 766 766 767 760 746 744 746 746 748 748 749 750 750 752 753 755 758 760 761 761 761 764 763 765 774 774 773 774 770 769 766 762 763 764 761 761 764 765 769 772 773 776 774 777 785 785 782 785 786 778 775 778 783 789 787 787 789 789 792 794 796 800
796 794 791 789 787 785 783 782 779 777 775 773 771 769 768 767 766 766 765 765 765 765 765 765 765 765 766 767 764 753 745 746 746 746 748 747 748 749 749 751 751 753 755 757 759 759 762 763 763 770 773 771 775 777 769 761 762 763 762 770 770 766 771 769 768 771 773 778 773 774 791 795 789 786 779 773 775 777 783 789 788 787 788 789 791 793 796 799
795 792 790 788 786 783 781 779 777 775 773 770 768 766 766 764 763 763 763 763 764 764 764 765 765 765 767 765 754 746 746 746 746 747 747 747 748 749 749 751 751 753 754 755 757 758 762 764 765 769 768 771 778 773 764 760 762 765 764 772 778 780 782 772 769 773 775 777 769 774 799 801 790 783 775 772 774 779 785 788 788 787 787 789 790 793 796 797
794 791 789 786 784 782 779 777 775 773 770 768 766 764 763 761 760 760 760 761 762 763 764 764 765 765 767 759 745 744 746 745 746 746 746 747 748 749 750 751 752 753 754 755 757 759 762 763 765 768 767 770 772 766 767 767 766 768 770 773 782 791 788 773 769 776 779 777 767 777 798 795 786 781 774 772 773 777 785 787 786 787 787 788 789 792 795 796
793 791 788 786 783 781 778 776 773 771 768 766 764 762 761 758 757 757 758 759 760 762 763 764 764 765 767 757 743 743 745 744 745 743 744 746 747 749 749 750 752 753 754 756 759 760 761 763 768 772 770 766 767 773 778 776 770 771 779 784 787 789 786 776 770 773 779 776 770 782 797 790 783 780 774 773 774 776 783 785 785 786 786 787 789 791 794 795
792 789 787 785 782 780 777 774 772 769 767 764 762 761 759 757 756 756 757 758 759 762 762 764 764 765 767 755 743 743 743 743 743 742 744 744 745 747 747 750 752 753 756 757 759 760 760 763 767 770 770 769 773 779 783 784 781 777 782 790 788 786 788 785 776 769 772 776 777 783 792 790 782 777 773 773 774 777 782 785 785 786 785 785 787 789 792 794
791 788 786 783 781 779 776 774 772 768 765 764 761 759 758 756 755 756 757 758 761 761 762 764 763 765 761 748 744 746 743 742 742 742 743 743 745 745 747 751 752 753 756 757 759 760 761 764 767 769 770 773 775 778 790 799 794 787 785 788 786 784 787 789 783 773 770 777 782 783 788 787 779 775 774 773 774 778 783 785 784 785 785 784 785 788 789 792
790 787 785 782 780 778 775 773 771 768 765 763 761 759 758 757 757 757 758 759 761 762 764 764 764 769 762 748 747 748 743 742 741 741 742 743 745 745 746 749 750 753 758 760 761 762 764 765 769 775 776 776 775 779 795 800 792 790 789 788 788 785 785 787 784 776 773 779 783 785 789 786 779 776 775 773 774 778 781 782 783 783 784 784 784 786 787 789
789 787 784 781 779 777 775 772 770 768 764 762 761 760 758 758 758 758 758 760 762 763 765 764 763 766 762 751 747 744 741 741 741 741 741 742 744 745 745 747 749 755 763 767 767 764 767 770 775 781 782 779 778 779 786 786 783 786 786 788 790 789 787 783 777 769 770 781 784 784 786 783 780 778 776 774 773 777 781 781 784 784 784 784 784 784 785 787
788 786 783 780 778 775 773 771 770 768 765 763 761 759 761 762 763 763 760 759 759 758 758 758 758 758 756 750 745 743 742 741 741 740 740 742 743 745 746 748 752 759 765 770 771 765 766 779 784 782 781 778 776 776 776 776 778 782 785 787 788 790 788 780 773 766 765 780 783 778 780 779 778 776 772 772 773 777 781 783 785 785 784 783 782 783 783 784
788 785 782 779 777 774 772 771 769 767 766 764 761 761 765 767 769 769 762 758 754 752 753 753 753 754 751 748 744 743 745 744 741 739 740 741 741 748 752 752 760 768 767 767 769 765 769 783 783 776 776 774 773 774 773 774 777 780 784 787 788 790 786 776 772 765 763 777 780 773 778 778 774 774 770 770 773 776 776 779 781 781 781 780 780 781 781 781
787 784 781 779 776 773 771 770 769 767 766 765 763 764 766 766 767 766 764 762 754 749 751 750 751 752 747 744 743 743 749 750 746 741 739 740 743 752 756 756 765 770 767 767 771 775 780 783 777 771 771 771 772 773 774 776 778 781 783 787 790 787 783 776 769 763 763 776 778 772 778 778 771 771 770 768 769 769 768 770 773 775 777 778 778 779 779 781
786 783 780 778 775 773 770 769 768 767 766 766 765 765 766 765 764 763 763 766 759 749 749 750 751 750 746 744 741 742 750 752 750 744 738 741 747 751 755 760 766 768 768 771 776 784 788 780 770 767 769 772 774 773 775 778 779 781 783 787 790 784 786 786 773 764 764 770 771 769 775 776 772 773 771 767 765 765 766 767 769 770 772 772 772 774 776 779
785 782 780 776 774 771 769 768 767 766 766 765 766 765 765 764 764 763 762 765 764 753 746 746 746 746 745 743 740 743 749 748 748 745 738 742 749 751 754 759 765 769 770 771 774 781 782 771 763 766 770 773 776 775 777 782 783 782 779 783 785 782 785 786 776 770 768 767 763 769 783 782 774 777 776 769 766 767 767 769 771 771 770 770 770 772 774 775
784 781 779 775 773 770 767 767 766 766 765 764 765 765 764 764 762 762 763 769 769 755 746 745 745 744 741 740 740 741 745 746 744 742 738 740 747 752 755 756 763 771 771 770 775 779 775 764 761 768 771 773 777 777 776 781 786 785 776 773 776 779 780 779 777 777 781 779 762 768 798 797 777 776 778 772 772 771 769 770 772 772 770 771 772 772 772 773
782 780 777 774 772 768 766 765 765 765 765 764 764 763 763 763 761 761 765 776 773 756 749 749 747 745 741 741 741 740 750 751 740 738 738 739 741 747 757 759 760 767 767 767 774 775 768 761 762 768 770 772 777 778 774 775 788 789 772 763 768 774 777 777 779 783 789 785 764 761 789 800 786 779 774 772 774 773 771 771 770 770 770 769 770 770 770 771
781 778 775 773 771 768 766 765 766 765 764 764 763 762 762 761 761 760 768 785 779 756 751 751 747 745 742 742 740 745 760 755 741 739 738 740 741 742 756 763 762 764 760 765 778 773 763 762 765 767 770 775 778 778 770 769 785 784 763 758 767 771 775 776 776 782 782 775 769 763 773 792 795 781 770 770 776 777 774 772 769 767 768 766 766 766 766 768
778 776 774 771 770 769 767 766 767 764 764 765 762 762 761 759 760 761 774 793 778 752 750 750 744 742 741 741 741 747 754 749 750 749 737 739 744 744 756 761 761 763 757 765 781 772 760 763 765 765 771 776 775 770 763 766 778 770 754 759 765 765 770 770 771 779 777 777 783 774 770 791 796 778 768 770 777 781 775 769 766 763 764 764 763 764 763 764
776 774 772 770 768 767 766 766 766 764 764 763 761 762 760 759 760 764 781 791 769 750 751 748 744 744 743 744 746 747 747 746 753 750 738 742 745 745 756 757 757 762 758 763 772 766 759 759 757 761 768 769 764 758 756 763 767 756 752 759 761 763 766 767 771 774 776 786 791 777 773 791 793 779 776 778 778 777 769 761 759 758 760 761 761 761 761 762
774 772 770 768 767 766 766 765 764 763 763 762 762 760 757 760 765 777 793 786 765 756 753 749 749 749 748 751 752 750 749 749 749 746 746 751 749 747 752 752 755 761 763 764 765 763 759 753 752 757 760 757 754 751 751 755 754 749 755 760 763 767 767 769 773 772 784 795 785 773 772 782 788 783 778 774 766 760 758 757 756 755 757 758 758 759 759 760
772 771 769 766 766 766 766 765 763 763 763 762 762 758 759 765 772 789 794 775 763 763 756 753 753 749 751 755 756 754 753 753 750 750 757 760 760 760 761 762 763 765 769 770 766 764 760 756 756 755 752 752 752 751 749 747 748 752 760 763 769 775 773 777 779 778 796 802 781 770 771 777 787 780 768 761 749 743 747 751 751 751 752 753 754 754 754 756
771 769 767 765 765 765 765 765 763 763 763 762 761 759 765 775 783 792 786 769 770 772 761 757 754 751 752 754 757 757 755 757 755 757 766 770 773 774 776 782 780 778 781 780 774 769 764 762 761 756 752 754 758 758 753 748 749 757 764 768 781 790 790 793 794 792 799 796 778 771 771 779 782 766 753 753 746 740 740 740 743 746 748 749 750 750 751 752
770 768 766 765 764 764 765 764 764 764 763 761 762 762 769 785 792 789 781 776 776 769 759 757 754 753 754 757 761 759 759 764 762 763 769 773 779 780 779 781 780 782 786 785 784 779 772 768 763 760 759 758 761 766 764 759 756 761 765 771 784 797 804 809 808 804 801 789 778 775 775 781 778 757 746 745 740 734 733 733 737 739 741 743 743 745 747 748
769 767 766 765 764 765 764 764 763 763 762 761 763 766 776 792 794 783 781 781 772 762 759 760 757 755 756 759 763 760 767 775 770 770 775 776 785 789 785 782 779 781 784 786 790 788 786 782 772 769 770 764 764 766 767 765 762 759 759 762 771 780 792 802 802 799 797 789 780 777 778 780 775 761 750 742 736 732 730 730 731 732 734 736 739 743 745 746
769 767 767 765 765 765 763 764 763 762 763 762 764 774 787 797 794 785 784 779 769 765 763 760 761 764 765 765 764 760 766 777 776 776 783 788 795 798 794 790 786 785 788 790 792 792 794 789 776 771 770 766 767 765 760 763 766 761 756 761 767 767 770 782 788 786 785 788 785 779 775 769 762 756 750 743 739 737 735 733 732 732 731 734 739 741 742 743
769 767 767 765 765 765 763 764 762 761 763 761 769 785 793 793 791 786 781 773 770 770 766 764 769 777 779 776 773 767 763 771 776 780 789 793 798 802 799 794 790 789 792 793 794 797 797 789 777 772 768 765 768 766 759 763 768 763 763 769 768 762 762 773 785 783 781 791 792 781 773 767 762 759 753 749 747 744 744 742 739 737 734 735 737 736 736 737
769 767 767 766 766 765 764 764 763 762 763 763 775 790 790 786 785 781 775 770 769 768 769 777 782 785 790 787 784 778 768 770 776 784 796 799 800 804 802 796 791 790 792 791 793 797 797 790 783 780 777 768 764 763 759 760 763 768 774 771 762 760 761 766 781 791 794 800 792 781 783 788 790 783 768 760 757 753 751 749 746 742 739 738 735 732 732 730
770 769 769 768 768 767 765 765 764 764 764 769 780 788 786 785 783 778 774 771 770 770 775 787 788 787 791 792 791 785 776 779 785 790 801 805 806 807 805 801 794 790 790 788 790 797 797 794 789 785 784 775 765 765 767 764 761 766 771 767 765 773 775 772 781 792 801 806 795 785 793 801 802 796 782 773 769 763 757 752 749 746 742 737 733 731 730 729
771 771 772 771 769 768 767 767 766 765 769 778 788 789 785 785 782 777 775 772 772 777 783 789 788 787 791 792 794 790 786 791 795 797 804 811 812 807 804 804 798 792 791 788 793 799 797 797 794 786 783 780 774 779 789 786 772 765 769 772 775 782 783 780 782 784 791 802 801 795 803 806 797 791 785 780 775 769 764 758 752 749 744 736 729 727 729 731
774 775 776 772 770 771 769 768 768 770 777 785 790 788 785 785 783 778 774 773 775 781 787 790 789 791 793 792 793 794 795 800 801 804 810 815 815 808 804 805 801 796 792 790 795 798 798 802 803 793 785 786 790 794 799 799 790 784 789 795 795 792 787 783 782 783 786 794 798 802 814 812 791 782 784 780 774 771 769 765 758 752 744 735 726 722 723 727
778 780 779 772 771 772 770 772 776 778 784 788 788 788 786 785 785 782 777 776 778 782 786 790 792 795 796 796 797 797 801 807 807 810 816 817 818 815 807 804 803 800 795 796 798 800 803 809 811 806 799 800 803 798 794 795 796 798 803 807 809 805 802 797 793 792 793 795 797 804 818 811 785 777 782 777 772 770 767 765 761 754 746 737 727 719 719 721
781 786 783 773 771 771 772 780 784 784 788 791 790 789 787 786 788 788 783 781 783 784 786 789 793 798 799 800 801 800 804 812 814 815 819 819 819 817 810 803 802 800 799 804 805 800 804 811 814 815 811 808 804 798 796 796 793 797 802 807 809 809 814 819 813 806 804 803 800 801 809 803 781 774 779 774 770 770 766 763 760 755 749 741 731 722 719 720
786 789 781 773 772 770 774 789 792 789 791 790 789 789 788 790 793 792 789 788 789 790 792 795 796 799 802 801 802 803 807 814 818 818 819 819 816 814 810 804 801 800 802 808 808 799 802 813 817 817 814 808 802 797 796 795 796 804 808 808 810 811 814 818 815 812 813 815 812 807 808 799 780 773 776 772 769 770 767 763 759 756 751 745 740 733 728 726
792 791 784 778 774 770 780 797 799 796 796 793 793 794 792 794 797 797 796 796 795 795 799 802 800 800 803 803 803 806 808 814 821 819 818 819 816 811 809 805 803 804 805 808 808 803 807 817 820 821 824 820 813 808 806 804 809 818 818 813 812 812 810 810 810 812 816 821 822 818 816 806 786 775 775 772 770 771 769 764 760 757 754 750 748 745 741 736
792 792 789 784 778 777 789 798 798 799 801 800 802 804 800 799 800 800 801 800 799 799 802 805 802 802 804 804 806 809 808 811 819 820 818 820 817 812 810 808 805 806 805 805 804 803 811 820 820 824 834 836 832 830 828 825 824 824 821 817 815 813 812 814 816 819 822 824 823 821 821 811 791 779 777 774 773 773 771 766 762 759 758 756 754 754 751 747
793 796 797 792 787 789 795 797 796 800 804 805 808 810 810 809 805 801 801 803 803 802 803 806 803 802 806 808 812 816 814 813 817 819 821 821 819 816 813 810 808 807 805 804 803 806 815 824 824 826 833 836 836 835 832 831 832 829 825 822 819 816 814 816 822 826 825 825 822 818 820 813 796 785 783 779 777 777 776 772 768 765 762 760 760 760 757 754
798 805 807 802 799 800 802 801 801 803 804 807 812 815 816 815 811 805 803 805 806 804 806 810 807 807 810 812 816 821 821 820 819 821 824 823 820 818 815 812 811 809 807 806 806 809 819 828 829 830 833 834 834 833 829 829 832 831 829 826 823 820 817 819 824 823 821 826 824 814 815 816 803 790 787 785 782 781 780 777 774 771 767 764 764 763 761 758
802 808 809 807 808 809 809 808 807 806 806 807 812 817 818 817 816 814 810 807 806 806 809 815 815 814 814 814 817 823 825 826 826 826 827 825 824 821 818 817 816 812 811 812 811 813 822 830 831 831 835 835 832 831 830 830 831 830 829 828 825 823 820 820 822 817 817 825 822 810 810 813 803 792 789 787 784 782 782 781 779 775 771 768 766 766 765 762
805 808 808 807 809 811 811 810 809 809 810 811 815 819 820 819 819 818 815 812 812 810 812 819 820 818 816 815 818 824 826 828 831 830 827 827 827 826 825 823 820 817 815 816 816 816 822 828 829 830 835 835 832 832 830 830 832 830 829 828 825 822 820 818 818 815 815 818 814 808 810 808 799 794 791 787 785 784 782 782 781 780 777 773 771 770 769 767
809 810 810 808 809 810 810 810 810 812 813 815 818 820 820 821 821 818 815 815 818 816 814 819 821 819 818 817 818 823 824 824 828 828 825 827 828 827 827 827 824 821 818 818 819 818 822 829 829 829 835 836 834 833 831 831 833 831 828 826 823 820 819 818 816 814 815 817 813 811 811 805 798 796 793 790 788 786 785 785 785 785 784 780 777 775 773 771
811 812 811 810 813 814 813 813 814 816 817 818 820 820 821 821 821 819 816 814 817 818 815 816 818 818 818 818 818 821 821 819 820 821 820 822 824 824 824 824 823 822 821 821 821 820 823 830 830 831 838 840 835 834 833 831 830 829 826 824 822 820 820 818 817 815 816 818 816 814 814 810 804 799 795 792 791 791 791 791 789 789 788 786 783 780 777 775
811 812 812 811 815 818 818 816 817 820 821 820 819 819 820 820 819 819 818 814 814 816 815 815 816 816 819 820 818 817 816 814 815 815 815 816 817 818 820 821 820 821 822 823 824 824 825 829 833 837 842 842 837 835 833 831 830 829 826 822 820 820 821 820 818 815 813 815 817 815 813 810 807 803 800 798 797 797 797 795 792 791 790 789 786 784 781 779
Wind_Speed
21 20 21 22 22 23 22 22 21 20 18 17 16 16 17 17 18 19 20 19 16 15 14 12 9 8 8 9 11 10 9 9 9 7 9 12 13 12 12 14 13 17 17 15 17 15 9 6 7 8 6 4 2 1 3 5 3 1 1 2 3 2 2 3 3 4 4 5 7 7 6 6 7 4 1 2 5 5 4 4 1 3 8 13 19 26 29 28
21 21 21 22 23 24 23 22 21 21 19 18 17 16 17 17 18 18 19 19 17 15 13 11 8 7 7 8 9 8 9 10 9 9 13 11 7 14 16 16 16 19 18 17 19 17 10 6 8 8 5 2 2 3 3 4 5 3 2 2 4 4 3 3 4 7 6 7 8 7 6 5 7 6 3 4 5 4 5 3 2 9 13 16 22 28 27 27
21 22 22 22 23 24 23 23 22 21 20 19 17 17 17 17 17 17 18 19 16 14 12 9 6 7 7 6 7 8 9 7 5 7 7 6 13 18 20 20 18 18 18 17 19 17 11 10 11 8 4 2 2 4 4 3 5 4 3 2 5 5 3 1 6 7 6 9 10 7 6 5 5 5 3 6 7 4 6 6 7 12 15 18 19 23 26 25
22 22 22 22 24 24 24 23 22 22 21 19 18 18 18 17 17 16 17 18 16 13 10 8 6 5 5 5 5 7 7 4 2 4 2 3 16 22 22 21 18 18 16 13 15 14 9 9 9 6 3 2 1 2 4 4 3 3 5 5 4 2 2 2 4 6 7 9 10 9 8 6 4 4 3 8 8 3 5 7 9 15 19 21 19 21 24 23
22 22 22 23 24 25 25 24 23 23 23 21 19 18 18 17 16 15 15 16 14 11 9 7 5 3 3 4 5 7 5 2 2 4 2 2 16 24 23 20 16 19 18 11 12 12 7 6 6 3 2 2 2 2 4 6 4 2 6 8 5 0 1 2 3 7 8 7 7 10 10 7 5 4 3 8 7 4 5 5 8 15 19 21 21 21 21 21
23 23 23 23 24 25 25 24 24 24 23 22 21 19 18 17 16 15 13 14 13 9 7 7 5 3 3 4 5 4 2 1 3 3 2 5 16 23 22 18 14 18 20 13 10 10 6 4 4 4 3 2 3 4 4 4 5 4 5 7 7 5 4 3 6 7 7 7 8 8 8 8 7 5 4 6 4 3 4 1 7 15 19 22 22 20 19 18
24 24 24 24 25 26 25 24 24 24 24 23 22 20 18 17 16 14 13 13 12 9 6 6 4 3 4 4 3 2 2 4 4 5 5 7 15 20 20 17 15 17 19 13 9 8 6 5 4 4 3 2 4 5 5 4 5 6 6 6 8 8 6 7 8 7 7 7 7 7 8 8 9 8 6 6 3 3 3 1 7 17 20 22 20 16 17 17
25 25 25 25 26 26 25 25 25 25 25 24 23 22 19 17 15 14 12 11 11 9 7 6 5 4 5 3 1 2 1 5 6 8 8 10 14 19 19 17 16 18 18 14 11 8 6 6 6 4 3 4 3 4 5 5 5 7 9 8 7 7 7 9 8 8 7 5 6 8 8 7 8 8 7 7 5 4 4 3 8 18 19 18 18 16 15 16
25 25 26 26 27 26 26 26 26 26 26 26 25 23 20 18 15 13 11 11 11 8 6 7 7 6 5 2 1 1 2 4 8 10 10 13 16 20 21 18 18 19 15 14 13 10 7 7 6 5 3 4 4 5 4 4 4 6 8 8 7 6 9 11 9 9 7 4 6 9 8 5 6 7 5 6 7 6 5 6 10 18 19 17 17 16 15 16
26 26 26 27 27 27 27 27 27 27 27 27 26 24 21 18 15 13 10 11 10 7 6 6 6 5 4 1 3 2 3 4 8 11 11 13 16 21 23 20 21 21 14 11 13 12 8 6 6 5 2 2 3 5 6 5 4 4 6 7 9 6 9 11 10 9 6 4 7 8 7 5 3 3 4 5 9 9 8 9 12 16 18 17 17 14 14 17
27 27 28 28 28 28 29 29 29 29 28 28 27 24 22 18 15 12 10 10 9 6 4 4 4 3 3 2 3 2 4 5 10 12 10 13 17 18 23 23 23 24 16 9 14 18 12 7 5 2 2 2 3 5 5 5 3 6 6 8 7 4 8 10 11 9 6 5 6 6 7 4 0 2 4 8 11 11 11 12 13 14 16 17 17 14 13 16
27 28 29 29 29 30 30 31 31 31 30 29 27 24 22 18 15 12 10 9 7 3 3 3 1 3 3 1 3 6 4 3 7 11 10 12 13 11 16 22 23 25 21 11 13 21 17 9 4 1 2 1 4 4 4 5 5 6 5 5 3 6 7 8 9 9 7 5 7 9 6 0 3 4 4 9 11 12 14 14 14 14 15 16 16 13 11 16
27 29 29 30 31 31 32 33 32 32 31 29 27 24 21 20 16 13 11 8 3 2 2 0 2 4 2 1 7 7 3 0 3 8 12 13 10 8 12 19 21 23 24 18 14 19 19 11 4 3 2 3 3 4 5 7 5 5 2 1 2 4 2 7 6 8 7 5 11 10 3 4 8 7 5 10 14 15 15 16 15 13 14 14 14 12 12 16
28 30 30 31 32 32 34 33 33 33 32 30 26 22 22 20 16 12 9 5 3 4 4 2 3 4 2 4 7 3 1 2 4 9 15 17 10 7 12 16 19 21 23 21 12 10 16 13 6 4 3 3 4 5 6 5 3 2 2 2 3 2 3 6 7 10 7 5 12 6 2 5 8 9 7 11 15 17 16 16 15 14 14 13 13 13 12 15
29 30 31 32 32 33 34 34 34 33 32 29 24 23 22 17 13 9 5 5 6 7 6 3 4 3 1 6 6 2 1 2 7 12 15 19 13 6 12 17 19 21 20 19 11 6 13 13 5 3 4 5 4 4 5 3 3 2 1 2 0 2 3 5 8 11 8 6 11 5 2 4 6 8 8 11 15 17 17 16 15 15 15 14 13 13 13 14
30 31 31 32 32 33 34 34 33 32 31 27 24 22 18 13 9 1 5 7 8 9 6 3 5 3 1 4 4 1 3 3 7 11 13 19 17 9 13 16 14 17 16 14 13 9 10 10 4 3 4 4 3 3 2 3 4 3 1 2 2 2 2 3 6 10 7 6 10 8 1 1 3 7 9 12 15 16 16 15 16 15 14 14 13 13 13 13
31 31 31 31 32 32 33 33 32 32 30 24 23 20 12 9 4 8 10 8 9 8 5 4 3 2 2 5 4 2 4 6 7 9 13 18 17 10 11 11 6 11 10 8 11 9 5 4 2 2 3 3 1 2 0 2 3 3 2 0 2 2 2 2 4 8 7 6 10 10 5 3 3 7 11 14 16 16 16 16 16 15 13 13 12 13 13 13
31 31 31 31 31 31 32 32 30 31 27 22 23 17 7 8 9 12 13 12 8 6 3 2 2 1 2 5 4 6 11 8 6 7 13 15 14 11 10 7 4 7 5 1 6 5 2 1 1 1 2 2 2 4 3 4 4 2 0 1 2 2 2 2 3 6 8 6 8 10 8 8 3 6 11 14 16 16 16 16 16 15 14 12 12 14 14 14
31 31 31 31 31 31 31 30 29 29 24 20 21 11 5 8 7 7 10 10 5 2 0 1 2 1 2 5 7 10 14 7 5 5 11 13 11 10 7 5 5 7 5 1 2 3 3 0 1 3 3 4 4 4 6 6 5 4 2 2 2 3 1 3 3 5 12 9 8 10 11 10 7 9 12 14 16 15 15 15 13 13 14 13 12 13 14 15
30 31 31 31 30 30 30 29 28 26 19 20 21 8 4 5 3 2 1 3 3 4 3 3 5 2 4 6 7 11 13 7 4 3 9 11 9 7 2 3 5 4 4 4 2 2 4 2 4 5 5 4 4 5 7 6 4 2 2 1 3 4 4 3 4 5 11 9 9 12 12 12 10 11 14 15 16 15 15 15 14 14 14 13 13 14 16 16
31 31 31 31 30 30 29 27 26 21 15 17 18 6 2 2 2 3 5 3 5 6 6 6 7 6 7 9 10 8 7 3 2 2 6 8 9 7 0 2 5 2 3 5 2 1 3 5 6 6 6 6 5 5 5 5 4 3 3 4 4 4 5 4 4 5 8 8 9 11 11 11 10 11 14 15 16 17 18 19 18 18 16 14 15 15 16 14
32 32 32 31 30 29 27 27 23 15 12 15 12 4 1 3 5 6 4 4 6 5 7 7 5 7 9 13 17 9 2 2 3 4 4 6 5 5 1 3 6 3 2 3 3 2 3 5 7 6 5 5 4 4 5 5 5 4 3 3 4 3 2 5 6 5 6 7 6 8 10 10 8 9 12 16 17 16 17 19 19 19 17 15 16 15 15 14
32 32 32 31 30 28 26 26 18 9 12 13 7 4 5 10 11 7 3 2 6 3 5 5 4 5 6 8 11 5 3 3 1 4 3 7 3 4 4 4 6 4 2 4 4 4 3 5 7 7 4 4 5 5 4 4 4 4 4 3 4 2 2 2 6 5 2 5 6 6 7 5 4 6 9 14 14 11 13 16 15 16 17 17 18 15 15 16
31 31 31 31 30 26 26 23 11 7 14 9 2 6 11 13 14 10 3 1 4 5 4 5 4 4 4 4 4 4 3 3 2 3 4 8 3 3 5 4 5 3 3 6 6 5 5 7 5 5 4 5 5 6 4 3 4 5 5 6 6 2 4 5 5 5 3 5 8 3 1 2 5 9 9 9 9 8 10 12 12 13 14 14 15 14 15 17
30 31 30 31 28 25 26 15 5 11 15 4 1 10 14 14 15 11 4 2 3 5 3 2 1 2 2 2 3 3 1 1 2 3 4 9 6 3 2 2 4 3 5 6 7 4 7 8 4 4 5 5 5 6 5 5 3 5 6 10 9 5 6 8 5 4 4 5 6 5 3 4 4 10 9 8 9 9 9 12 13 13 13 12 13 14 15 16
30 29 29 29 26 25 20 5 6 17 11 1 5 13 12 12 15 9 2 3 3 4 1 1 1 1 1 1 1 2 4 2 4 3 3 6 5 4 2 1 1 3 6 4 4 3 5 5 5 6 7 6 6 7 5 6 3 5 5 8 9 7 7 9 5 2 1 5 4 5 6 3 2 7 9 9 11 11 9 12 14 12 13 13 13 14 14 15
31 29 28 27 23 22 13 3 10 13 3 2 10 13 12 13 12 5 2 4 3 3 0 1 1 1 1 1 2 5 2 4 3 0 2 4 2 4 3 2 0 1 2 3 2 3 3 2 4 6 5 5 6 6 7 7 5 6 5 6 6 7 7 9 6 4 4 4 4 1 3 2 1 6 8 9 10 10 9 12 13 13 14 15 14 14 15 16
31 28 26 24 20 16 8 6 11 6 0 7 12 13 13 13 8 3 4 2 2 2 1 1 2 0 1 1 2 4 3 3 2 1 1 4 3 4 3 4 5 4 2 5 3 5 2 1 5 6 4 4 5 7 8 8 6 10 7 5 5 6 7 6 6 4 2 1 3 4 1 2 4 3 5 9 10 11 13 15 16 16 16 15 15 16 15 16
30 26 23 22 19 10 4 6 7 3 5 11 13 15 14 9 5 4 3 1 1 2 0 1 1 1 2 2 1 2 0 0 2 2 1 5 8 6 2 4 5 4 2 5 4 5 2 4 6 6 4 5 7 10 9 10 9 10 5 5 4 3 3 2 4 4 2 2 4 7 3 3 5 3 4 8 9 12 15 15 16 15 15 15 15 16 15 14
27 23 21 21 15 5 4 8 7 4 9 12 15 16 10 4 4 4 2 0 1 1 0 1 2 1 2 3 2 3 2 0 1 1 3 5 10 9 1 0 5 3 0 2 2 4 3 4 3 3 3 6 7 8 7 12 13 6 1 3 4 1 2 2 2 3 3 1 6 7 5 4 3 4 4 8 12 16 15 13 14 14 14 15 14 14 15 14
25 21 18 17 11 4 4 5 4 6 10 13 16 12 4 3 3 4 1 1 2 3 2 2 2 1 1 4 0 1 2 2 2 4 4 5 9 10 6 5 4 3 4 3 3 3 5 3 1 1 1 2 2 4 3 6 10 5 1 1 1 3 2 3 4 2 3 3 7 6 3 5 2 5 5 9 14 17 16 14 16 17 16 15 14 14 15 14
23 18 13 11 10 7 4 3 6 8 9 13 13 6 4 3 3 2 1 3 2 3 3 3 2 1 1 3 2 0 2 3 4 6 5 4 6 6 6 4 2 2 3 2 1 3 3 1 3 3 4 7 4 3 5 4 2 5 3 3 2 2 1 1 2 1 4 4 5 5 2 3 4 6 7 12 14 15 15 13 14 16 16 15 15 15 14 13
21 16 11 9 9 9 7 6 8 8 11 13 8 4 5 4 2 2 3 3 1 3 3 3 3 1 2 4 3 2 5 4 4 6 5 4 5 5 5 7 5 3 2 0 2 3 1 2 6 6 4 6 5 1 2 3 3 3 5 4 4 3 2 3 3 1 2 3 4 4 2 1 3 5 6 11 14 15 14 11 11 14 16 17 16 15 14 14
19 15 12 10 11 10 9 8 9 10 12 10 4 4 6 4 1 3 3 2 2 3 3 3 3 3 4 4 2 2 6 6 5 6 4 4 5 4 5 10 11 4 2 3 2 2 2 2 3 5 3 5 4 0 3 3 2 2 5 5 5 5 4 3 3 2 3 3 2 2 2 3 3 2 6 7 10 10 9 10 11 13 15 15 14 13 14 14
17 14 12 10 10 9 6 6 7 8 7 5 5 5 5 2 2 2 2 4 3 3 5 3 4 6 5 5 5 4 4 3 4 7 7 5 5 5 5 7 10 6 2 3 1 1 2 3 4 2 3 4 6 5 3 2 3 3 2 5 3 3 4 2 3 4 4 1 2 1 2 3 5 2 12 11 9 8 5 6 9 12 13 12 12 13 14 14
16 13 9 8 8 5 2 3 4 4 3 4 6 5 4 1 2 1 2 4 2 3 4 5 7 7 5 5 5 7 4 3 2 4 5 5 5 7 6 4 8 8 4 2 1 2 2 2 5 5 3 6 7 5 3 5 2 2 2 1 4 4 3 3 1 1 3 3 1 2 1 4 2 5 13 15 15 14 10 7 6 8 9 10 12 14 15 15
17 12 6 8 8 2 0 1 2 2 3 5 7 5 2 1 3 3 3 3 3 3 3 4 5 4 3 3 4 7 5 3 3 3 3 3 4 7 7 4 6 9 6 1 2 2 2 2 5 6 4 7 8 4 3 8 4 1 1 4 5 1 3 3 1 2 5 2 3 1 3 5 5 3 9 15 16 16 14 11 9 8 5 10 13 14 17 18
16 10 5 10 9 3 1 1 1 3 4 5 7 5 2 3 4 4 4 3 2 4 6 4 2 3 1 1 3 7 6 3 3 4 3 3 3 5 6 4 5 9 8 4 2 1 2 1 4 6 4 6 8 5 3 8 9 3 3 3 3 2 1 1 2 2 2 2 2 1 4 4 4 3 8 13 13 14 16 14 12 12 7 9 13 14 16 16
12 5 3 13 12 4 3 1 1 4 5 5 5 3 2 3 5 6 5 4 4 5 5 3 2 3 3 2 2 6 8 6 4 3 3 3 2 3 7 4 5 8 8 6 3 1 2 2 3 6 7 5 5 7 4 7 9 6 3 5 5 1 1 1 1 3 2 3 3 0 3 3 2 4 8 10 10 11 15 14 13 14 13 8 12 14 13 13
8 3 2 17 15 2 2 2 3 5 5 4 3 1 3 2 4 8 8 7 6 4 4 4 3 3 4 5 4 4 7 7 5 4 3 4 1 2 7 6 5 7 7 5 5 2 2 3 1 6 8 5 2 4 4 4 6 7 7 7 6 4 2 1 1 1 3 3 3 2 2 2 4 3 6 9 8 8 11 12 11 13 16 13 9 12 12 13
5 3 4 19 15 1 1 3 4 4 3 3 3 2 4 3 4 9 10 8 7 4 4 4 5 4 3 5 6 4 4 5 5 5 3 4 3 2 6 5 4 6 5 5 6 4 2 2 1 4 5 3 1 4 5 4 6 7 6 6 5 5 4 1 0 2 2 2 2 4 3 4 5 2 5 9 7 6 9 11 12 13 17 18 11 9 13 13
5 3 7 21 14 1 4 5 2 3 3 3 3 3 4 4 4 7 8 7 7 5 5 5 5 5 4 4 4 3 4 4 5 4 3 4 5 2 6 7 6 3 2 3 3 3 1 3 3 2 3 2 4 2 6 6 6 8 7 6 4 4 5 2 1 3 4 2 1 2 4 4 4 2 7 8 5 6 8 10 13 14 16 19 18 7 6 9
3 0 10 25 16 4 7 6 3 4 4 2 2 4 5 4 4 6 6 6 5 4 5 5 4 4 5 4 3 3 4 4 4 4 3 3 4 3 7 9 8 4 3 3 4 3 2 3 3 2 3 4 4 2 5 8 7 6 5 6 5 5 4 1 3 1 1 3 4 2 2 2 5 6 8 7 5 6 9 10 12 14 15 18 21 17 9 5
1 3 6 22 24 13 8 3 2 4 4 3 5 6 5 5 6 7 7 6 5 3 3 4 4 4 4 4 4 4 3 4 4 4 3 2 2 5 8 9 8 5 4 4 3 2 2 2 3 3 3 5 5 5 5 7 7 3 3 6 5 6 8 4 1 1 1 3 4 1 2 3 7 8 8 7 8 9 10 11 11 12 14 15 17 18 16 14
2 0 4 13 23 16 5 2 3 4 3 6 8 6 5 4 5 7 7 6 5 4 3 2 2 2 3 4 6 7 6 5 3 2 3 3 2 4 7 9 8 5 6 8 6 2 2 2 3 4 3 1 1 2 3 4 5 3 4 6 6 7 8 5 3 3 2 2 4 1 1 5 9 10 10 10 10 11 12 13 12 12 13 14 14 15 15 15
2 3 2 6 11 8 3 2 3 4 3 4 5 6 6 4 4 6 7 6 5 5 5 2 3 2 5 6 6 7 8 7 4 2 2 2 2 2 5 7 7 7 9 12 10 3 3 3 3 5 5 3 4 3 3 3 3 4 6 8 7 6 5 4 3 2 1 4 4 2 1 7 10 11 11 10 10 11 11 12 12 11 12 12 12 13 14 14
3 2 2 2 3 4 4 5 4 4 2 1 3 3 6 5 4 6 6 4 3 4 4 4 5 4 4 5 5 4 5 5 5 4 3 2 1 3 5 4 7 10 10 9 8 4 4 4 5 6 4 4 5 4 4 2 2 4 6 7 7 7 6 4 2 2 0 4 4 5 1 5 8 10 10 8 8 8 9 11 11 10 10 11 11 13 15 16
3 1 1 1 1 2 3 3 4 6 5 4 3 2 4 6 5 4 4 4 4 4 4 4 7 6 4 3 4 3 3 4 5 3 2 3 3 3 6 4 5 8 7 5 5 4 4 2 2 5 3 2 3 2 2 2 1 3 3 4 7 7 6 4 3 5 2 2 5 8 5 4 7 8 8 7 7 7 7 9 9 9 10 11 12 14 15 15
2 2 2 1 2 1 1 2 4 7 7 5 4 3 3 5 5 3 2 3 5 5 3 4 4 5 6 4 4 4 3 3 3 2 0 1 2 2 3 3 4 5 4 3 3 2 4 1 1 4 3 2 2 2 2 3 3 4 3 4 5 6 7 5 4 4 2 3 7 8 8 6 5 6 7 7 7 6 6 8 10 12 13 13 13 13 13 14
2 1 2 2 3 2 2 3 4 6 6 4 3 3 2 4 4 3 2 2 2 4 4 5 3 4 6 5 5 4 3 6 5 1 2 2 1 0 0 1 2 4 4 2 2 3 3 2 2 4 4 4 4 3 4 3 3 5 5 5 5 5 6 4 2 2 3 2 5 7 7 5 4 7 8 7 7 7 8 10 10 11 12 13 13 14 14 14
2 2 1 3 3 4 3 3 3 4 4 4 2 1 2 2 3 2 2 1 3 1 0 4 4 3 4 5 6 3 3 6 6 3 4 4 1 2 2 2 2 2 4 2 2 3 3 1 2 5 4 4 4 5 7 6 4 5 5 5 5 2 3 3 2 2 2 3 4 5 4 3 5 8 8 6 8 9 10 10 9 8 10 12 12 13 13 13
5 1 1 4 3 4 3 2 4 4 2 2 1 1 1 2 4 2 1 2 4 4 1 4 5 4 4 5 5 0 3 3 2 2 3 3 1 2 2 1 2 3 1 1 2 1 2 2 2 3 2 3 5 5 6 6 5 3 3 2 2 1 2 4 4 5 4 2 1 1 2 2 5 6 7 7 8 9 9 8 8 7 8 10 10 11 12 12
Wind_Direction
355 353 355 0 3 4 3 2 3 1 357 355 355 356 356 356 353 350 347 345 341 335 337 333 316 302 298 302 302 299 303 302 299 262 237 257 245 221 201 189 170 151 152 168 168 157 155 167 189 185 161 155 172 195 209 226 210 153 195 197 250 238 211 213 179 165 149 158 165 173 191 153 139 142 160 132 63 68 75 38 34 97 108 119 129 140 146 148
355 354 352 356 1 2 0 359 1 0 357 353 353 351 352 355 354 350 346 346 343 338 342 337 322 307 302 303 297 297 310 304 291 257 245 254 216 192 189 178 165 156 154 162 167 161 155 166 179 170 147 151 182 174 172 199 195 194 189 180 235 218 219 233 149 143 149 164 161 162 179 154 140 143 171 152 113 112 102 82 125 113 114 121 134 145 148 147
352 353 352 353 356 357 357 357 357 357 357 355 352 347 347 351 352 350 347 346 345 342 343 340 329 312 309 302 296 305 311 312 288 262 261 228 182 175 177 174 168 166 163 167 173 171 166 166 168 153 136 180 198 179 184 193 188 198 207 228 245 224 246 273 146 156 161 156 151 150 155 135 127 135 171 143 127 146 139 152 156 133 132 136 144 151 150 149
348 350 351 351 351 352 354 354 354 353 354 355 352 348 345 347 350 350 348 347 346 346 347 345 332 312 313 303 304 316 313 329 277 261 338 196 177 168 172 174 173 180 177 167 175 177 164 151 156 150 134 192 230 198 216 226 200 185 201 225 254 220 248 262 157 149 148 153 151 142 132 122 126 134 160 139 131 164 169 179 165 147 147 146 153 156 153 153
345 347 350 349 348 350 351 351 351 350 350 351 352 349 344 346 348 348 348 348 347 349 353 354 347 332 317 311 320 321 329 45 259 254 350 169 171 166 170 173 173 185 181 162 168 170 157 130 139 156 146 189 201 192 222 223 224 241 221 233 264 291 236 244 156 143 147 155 147 137 135 132 129 130 166 158 154 172 169 188 165 151 151 152 157 157 155 156
343 346 348 347 346 348 349 350 349 348 347 347 349 349 346 344 344 346 346 346 345 344 351 357 1 360 321 322 329 328 27 146 265 238 201 161 168 169 167 169 168 180 184 175 164 159 151 118 125 165 169 196 198 208 235 211 206 248 251 244 248 229 219 193 157 155 155 156 155 146 133 123 127 140 183 183 164 137 134 165 159 151 152 154 157 156 157 161
342 344 347 345 345 346 347 349 348 346 345 345 346 347 345 342 342 342 342 344 343 337 332 335 341 341 331 333 331 10 64 261 246 184 192 167 171 175 169 170 167 175 185 180 165 155 152 146 146 163 165 210 210 219 246 233 210 231 258 259 244 227 206 179 168 166 164 164 155 135 122 130 147 151 180 194 143 104 107 58 153 150 153 156 159 160 159 161
341 343 344 344 344 344 346 348 347 345 344 343 344 345 343 341 340 337 339 341 338 332 315 310 311 302 318 329 317 15 337 252 197 173 190 172 174 178 171 172 175 180 183 181 176 161 156 165 169 162 172 219 232 238 242 247 234 227 246 257 253 235 192 171 164 161 166 161 137 130 132 149 156 142 172 187 151 137 120 96 144 148 155 160 163 164 158 161
341 342 343 344 342 344 346 347 347 345 344 343 342 342 340 339 338 334 335 336 332 324 304 305 302 281 294 303 101 20 246 207 177 181 185 175 179 181 179 180 183 186 185 190 187 169 170 178 183 178 177 231 256 270 255 241 236 225 240 254 258 239 175 161 157 161 166 154 145 139 132 145 146 131 167 188 159 155 122 121 148 151 159 162 166 169 158 162
341 342 344 343 343 345 346 346 346 346 344 343 341 340 339 338 336 332 330 333 328 312 297 306 300 270 263 241 104 115 201 175 178 186 182 179 180 183 190 192 189 188 188 191 188 186 189 175 179 186 185 265 254 260 252 226 242 253 254 273 265 224 163 156 152 158 155 148 165 149 133 140 148 149 185 185 159 148 127 147 165 160 164 166 171 172 159 166
342 344 345 344 345 346 346 346 346 346 345 342 340 338 337 337 333 329 326 328 325 306 285 305 308 251 211 148 116 185 202 181 187 184 180 184 181 184 193 196 192 189 185 180 193 201 201 178 166 177 199 259 286 284 264 228 285 295 278 306 293 164 142 154 149 156 151 156 180 139 111 112 83 270 210 170 156 149 146 164 179 172 168 169 173 171 161 169
342 344 346 346 347 347 346 346 346 346 345 342 340 337 337 337 330 322 316 317 317 289 261 302 305 181 168 101 211 210 174 159 191 186 189 191 188 193 198 196 194 192 188 181 203 207 203 196 184 252 233 345 327 296 286 276 304 298 277 319 330 110 136 170 148 159 167 163 169 126 86 208 219 243 202 159 154 153 157 170 183 179 171 171 173 169 164 170
340 344 346 347 348 348 346 346 346 346 345 341 339 338 339 336 325 311 303 303 291 227 225 210 163 172 139 270 234 209 171 262 226 206 207 202 196 204 203 201 198 198 197 194 205 207 201 203 214 269 301 346 307 263 289 298 302 290 272 83 109 85 153 189 139 159 178 164 169 145 95 232 216 224 191 157 158 156 162 174 181 180 175 174 174 169 168 172
341 343 345 347 348 347 346 345 346 346 344 341 339 340 341 333 317 297 287 269 204 187 190 171 174 164 140 261 256 225 241 275 232 216 209 202 198 192 195 201 202 202 206 205 205 203 200 206 231 285 291 254 257 285 309 309 321 296 283 53 116 123 208 193 153 165 174 164 179 172 334 228 212 213 184 161 165 160 165 176 175 177 178 176 173 171 172 175
342 344 346 347 346 346 345 343 345 345 343 342 341 344 342 331 313 293 262 206 180 173 176 174 182 165 22 280 276 265 248 262 219 214 210 203 193 174 188 195 201 204 209 210 203 188 190 195 215 262 266 246 240 292 322 330 338 355 255 324 140 197 223 189 174 178 171 158 184 196 310 235 207 201 178 166 171 163 166 175 171 175 181 177 174 171 173 179
344 346 346 345 345 345 343 342 344 343 341 342 344 348 346 334 327 287 160 163 163 163 158 137 180 180 41 285 294 294 209 211 217 212 210 207 200 193 189 187 197 205 211 212 207 209 189 181 197 216 240 262 228 233 333 354 328 357 119 237 217 211 241 179 184 199 183 148 185 206 227 228 203 193 175 167 174 167 166 174 173 178 183 178 174 174 173 176
344 346 346 344 343 343 341 341 344 342 340 343 347 351 354 357 36 121 124 130 142 148 135 105 154 183 276 283 306 328 271 239 224 214 204 204 208 203 170 166 190 198 204 212 208 219 197 177 216 224 240 253 183 148 10 293 275 321 9 208 239 206 187 168 178 204 200 160 188 210 225 248 224 181 172 171 173 170 170 177 177 179 186 183 176 178 176 174
344 345 345 343 342 341 341 342 344 343 339 343 351 354 18 59 97 113 108 113 119 123 104 81 116 122 262 290 309 300 298 267 216 208 199 200 209 199 161 153 163 158 161 193 192 198 191 190 210 253 282 220 164 123 175 225 204 213 358 80 306 313 138 174 190 190 191 196 202 203 220 242 234 168 176 176 173 175 178 180 181 181 188 189 179 180 181 178
344 345 345 343 341 340 340 342 345 343 339 345 356 4 60 75 99 104 108 121 115 120 200 195 164 123 234 278 292 291 303 281 208 194 189 193 201 193 165 142 125 119 123 125 184 179 171 197 187 217 240 210 197 161 181 209 174 169 177 152 250 299 273 200 237 201 180 197 219 204 214 223 205 179 182 179 175 181 182 180 184 185 189 193 185 183 185 184
345 346 345 343 341 339 339 342 344 343 342 349 356 11 64 36 47 19 47 166 197 217 242 206 182 243 281 273 286 296 310 294 232 206 176 180 176 163 129 94 94 88 131 145 189 192 153 183 227 218 212 208 212 186 191 217 201 196 245 263 250 269 279 221 240 226 179 190 225 213 217 217 199 186 183 180 178 181 183 183 187 189 193 196 189 186 187 189
346 346 345 343 340 338 338 340 342 342 345 354 358 18 118 5 10 317 313 285 248 224 235 226 197 236 262 260 274 294 323 316 251 259 181 173 156 143 90 56 100 104 188 154 152 133 145 204 233 227 208 211 218 192 196 232 247 255 254 280 281 244 263 263 256 243 184 191 234 223 222 225 205 188 183 180 181 185 185 185 188 191 193 194 192 189 187 188
346 346 343 342 340 337 337 339 342 341 348 360 11 43 198 337 334 284 290 313 286 228 216 236 221 246 257 258 265 265 276 291 309 305 187 151 136 153 150 80 128 191 216 137 108 123 192 230 240 237 214 212 244 214 201 233 246 254 244 266 281 236 276 298 282 261 190 190 242 226 221 230 207 188 187 185 188 190 187 186 188 189 190 191 191 189 186 185
345 344 342 341 338 335 334 337 339 343 352 359 13 17 352 356 353 320 286 290 292 261 207 222 207 237 258 261 260 226 187 225 270 298 190 136 127 169 135 112 151 177 154 146 149 154 199 246 238 234 222 206 254 256 222 247 259 247 238 245 255 192 95 298 287 297 198 200 238 217 211 221 162 177 200 197 197 192 187 190 189 190 191 192 191 187 184 184
343 342 341 338 336 333 333 336 341 354 348 346 355 360 1 2 2 354 346 218 294 290 228 212 196 211 238 258 243 150 163 212 173 272 184 139 137 156 146 152 148 146 180 173 161 165 227 248 225 216 220 203 239 266 238 232 261 251 231 232 240 192 166 219 264 327 346 255 247 196 145 254 161 175 202 203 203 197 189 191 191 197 198 195 193 190 187 187
341 340 338 337 336 330 330 336 359 353 343 335 5 354 360 360 357 359 8 74 318 290 244 220 231 216 231 253 231 170 130 251 220 240 178 151 152 134 142 156 131 182 216 171 153 183 245 245 197 188 215 202 219 255 233 191 234 273 241 228 229 212 214 234 262 332 353 297 251 160 144 275 205 180 189 187 199 202 193 193 194 197 199 197 195 193 193 191
339 338 335 336 336 331 333 346 351 345 341 336 355 348 352 355 353 358 37 57 339 285 251 124 181 205 257 234 204 99 71 301 256 226 169 151 139 107 121 170 90 201 202 165 152 195 246 228 176 191 209 199 209 241 229 176 195 271 239 215 217 211 229 251 258 242 260 279 266 161 162 258 256 196 191 181 196 202 196 201 200 196 197 198 196 194 193 193
337 337 335 335 337 336 334 311 329 340 354 324 339 340 344 349 351 3 71 40 333 284 183 270 303 136 227 199 126 98 114 268 279 120 158 147 115 59 107 193 160 208 203 110 129 222 241 202 188 203 200 194 208 237 222 169 169 252 221 171 190 200 218 240 234 204 219 252 301 329 129 113 250 215 187 174 191 204 206 210 206 201 201 200 198 196 193 192
336 338 337 334 338 334 311 299 326 339 358 328 333 334 339 345 351 53 92 58 282 281 122 266 299 249 265 290 99 117 194 236 114 290 289 102 51 45 105 203 176 193 232 107 150 254 279 147 195 191 179 194 210 230 215 162 185 249 231 169 180 191 203 219 203 199 235 205 282 291 109 117 274 257 170 170 187 205 213 214 210 203 201 200 199 198 195 192
338 342 340 333 335 335 301 300 307 301 320 329 335 333 336 346 11 74 83 97 280 312 30 347 327 267 325 12 38 63 33 58 129 254 322 60 24 35 145 210 155 172 224 120 180 250 250 202 188 152 160 204 221 235 215 169 201 245 228 203 222 191 189 187 160 159 78 101 235 248 184 163 277 281 158 169 193 211 215 214 212 205 200 200 200 198 196 193
342 345 339 330 332 341 310 300 288 312 332 331 333 330 335 12 59 71 51 98 18 323 270 334 316 294 57 65 349 354 64 314 241 23 39 42 21 26 39 311 95 123 44 45 244 251 278 261 192 140 182 207 221 240 220 195 211 231 135 211 248 296 86 67 82 112 96 255 249 241 193 159 267 276 182 181 202 208 210 213 210 205 200 200 200 198 197 194
345 346 336 326 324 312 298 310 332 345 334 330 330 332 2 46 64 90 85 49 14 331 326 312 296 329 110 128 80 331 99 340 340 54 45 25 27 28 16 11 40 53 27 357 300 302 328 332 254 270 360 33 265 267 276 226 214 206 119 131 265 315 27 47 355 60 138 250 261 246 184 136 208 264 227 215 217 211 208 208 204 202 200 197 198 198 197 195
349 348 336 322 314 302 292 322 344 337 325 327 332 354 77 40 31 83 299 336 10 324 313 298 280 299 193 125 80 58 96 28 21 67 72 41 40 49 48 27 4 43 25 310 291 329 322 332 330 321 28 33 8 301 321 335 137 157 159 109 123 291 335 185 284 209 184 241 249 226 149 129 230 250 226 222 227 224 217 210 202 200 199 197 198 197 195 195
353 350 339 322 307 305 311 319 324 319 317 328 344 52 82 71 38 3 328 346 345 271 290 292 290 302 100 79 41 31 60 37 25 59 68 68 59 51 44 24 19 90 129 314 31 10 300 297 346 359 6 13 29 62 316 347 40 147 171 146 153 169 130 212 241 238 226 246 241 221 189 207 267 280 247 227 228 227 218 207 198 199 200 199 198 195 193 194
355 349 338 317 304 311 317 314 311 306 315 336 28 73 63 78 359 347 4 313 260 286 308 299 316 360 55 59 37 71 60 28 22 52 43 47 49 13 9 13 10 31 92 51 57 66 138 225 347 22 337 333 13 35 214 219 281 249 183 146 149 165 153 197 211 179 216 244 283 252 197 176 188 312 315 271 252 245 225 206 195 198 204 201 196 194 194 196
352 348 341 325 321 330 329 312 304 302 319 8 70 73 67 72 294 338 354 295 281 322 320 334 27 34 24 14 10 36 79 52 31 59 55 58 56 5 351 359 358 5 49 61 45 20 112 217 284 306 266 342 4 322 277 203 238 269 176 119 125 195 157 148 183 174 174 122 355 242 206 218 192 24 360 351 341 332 293 241 212 207 205 193 190 195 195 197
352 353 352 341 345 358 346 302 292 301 342 64 70 62 80 68 320 313 306 305 299 308 324 8 34 38 11 357 357 355 32 85 90 75 58 62 60 15 353 341 357 10 26 80 81 8 70 234 302 330 322 2 356 311 21 54 230 257 45 63 272 254 139 118 211 270 80 93 288 238 248 307 322 29 3 0 5 3 356 340 291 248 219 192 194 197 196 198
354 356 349 344 356 15 270 273 279 334 30 76 76 65 82 33 340 301 299 309 294 319 28 43 25 31 9 359 352 335 352 50 57 63 39 35 41 6 348 330 355 9 6 61 122 30 56 243 318 7 348 329 334 305 50 36 16 95 66 294 290 255 131 110 144 358 51 112 269 314 92 12 13 14 342 352 1 358 356 352 334 315 266 211 209 204 200 201
353 354 349 357 356 302 259 57 4 29 54 66 70 74 70 23 354 328 318 326 335 17 51 69 38 37 17 16 3 348 1 25 20 51 53 31 34 1 352 331 342 359 352 13 88 16 22 289 309 7 351 313 346 7 9 359 6 70 168 300 9 114 178 12 127 146 87 150 251 20 84 50 20 331 331 348 351 347 348 349 348 343 314 232 219 213 207 205
3 8 19 8 3 305 276 35 12 40 63 58 62 69 35 22 6 352 346 7 40 43 44 52 50 41 27 49 19 7 33 46 27 59 63 31 30 353 3 348 325 343 346 15 63 282 10 50 283 328 340 326 4 28 9 335 347 18 46 14 15 118 186 328 178 156 128 166 201 8 42 23 308 306 328 331 332 349 354 349 349 344 330 283 229 214 206 204
15 58 356 358 6 345 276 335 13 39 63 59 69 50 10 15 356 358 10 30 48 53 45 32 29 47 32 36 44 28 42 46 37 60 47 20 57 354 5 360 325 333 340 16 49 36 24 53 299 305 339 7 26 7 1 341 356 20 35 28 6 344 348 303 232 93 106 149 171 127 69 292 265 292 324 315 323 0 5 355 351 345 342 331 266 217 198 197
25 79 332 351 9 102 270 7 23 40 63 41 45 45 30 36 359 359 8 27 51 64 66 61 49 49 37 38 44 29 45 53 37 57 59 24 48 16 350 349 326 328 347 15 27 26 29 61 31 327 351 25 280 318 3 36 61 60 51 34 13 357 10 48 311 354 33 102 152 143 135 256 263 322 325 312 326 0 10 14 8 356 355 350 322 235 201 198
44 78 344 357 8 103 63 45 3 26 74 53 38 36 33 42 19 0 358 16 46 49 42 52 50 42 38 47 52 34 60 64 21 42 82 39 47 21 320 335 341 336 42 34 333 323 62 93 68 360 317 298 262 309 40 60 83 75 58 36 22 24 34 53 246 317 348 11 314 130 125 231 251 350 330 315 338 358 2 21 24 13 7 4 357 330 221 210
62 128 354 9 21 93 81 55 352 21 53 37 47 44 34 39 20 9 11 21 30 28 33 35 29 41 41 36 54 53 58 64 31 42 84 38 30 347 316 338 356 8 59 35 320 321 36 61 51 360 312 325 306 306 33 48 59 55 30 18 19 17 6 300 217 238 348 6 354 29 99 250 290 338 332 319 349 8 360 9 25 25 18 15 13 9 6 5
100 222 337 17 38 70 88 74 54 56 38 21 49 40 26 43 36 25 27 28 22 26 50 33 15 47 45 23 53 59 53 84 59 31 58 61 360 331 338 357 11 24 44 19 338 345 19 42 62 43 9 1 353 333 345 19 38 33 334 353 4 359 355 345 333 52 90 48 24 57 152 283 300 322 339 348 4 16 8 3 18 30 26 23 21 16 14 19
38 189 275 8 35 54 76 144 120 92 49 48 53 28 8 39 43 31 35 38 31 41 69 34 349 53 52 35 51 44 39 78 88 8 31 40 340 330 356 12 20 30 33 17 10 41 69 58 89 94 95 122 311 323 310 330 355 346 325 341 346 354 5 16 26 25 59 26 14 94 211 298 302 324 350 0 6 13 11 5 11 25 29 29 28 22 17 19
54 43 306 341 19 41 45 30 80 85 60 63 58 23 13 25 12 17 38 46 24 32 62 30 329 31 44 44 61 45 34 51 68 75 65 21 338 328 349 11 26 32 33 22 17 51 98 51 73 115 126 163 190 211 260 291 322 324 328 338 340 346 9 54 58 14 345 352 340 199 217 319 316 331 347 355 6 12 11 9 9 15 24 30 30 26 23 23
84 58 360 340 351 18 30 17 34 62 46 70 82 24 12 25 10 5 24 31 6 34 62 21 5 36 45 50 73 53 26 36 41 57 59 3 336 328 339 7 27 26 32 23 11 48 92 50 60 94 119 168 186 218 263 284 305 315 329 338 337 336 351 33 56 244 270 26 313 253 289 332 310 320 335 345 1 11 16 17 11 4 15 29 29 24 25 25
72 103 305 54 13 11 40 26 40 57 47 52 76 45 19 37 37 15 359 351 2 36 69 28 21 43 50 63 93 71 27 44 35 29 22 359 357 351 348 352 357 11 28 16 359 66 105 92 76 85 91 165 200 241 302 4 334 306 313 322 329 332 332 333 269 244 197 121 256 271 301 302 288 307 329 342 355 12 27 27 16 5 11 25 29 24 22 24
64 71 312 5 77 103 90 45 60 62 52 47 50 38 41 43 29 352 324 356 7 13 64 73 40 52 58 61 91 78 60 86 49 1 128 49 27 38 8 338 323 348 27 30 359 69 107 79 60 86 70 9 312 327 13 20 345 311 295 291 298 300 296 289 272 273 268 223 253 282 293 274 272 309 331 343 350 8 37 39 30 21 14 15 25 26 20 19
70 101 313 17 55 41 16 18 53 65 46 39 53 34 37 48 25 342 334 62 52 352 33 87 93 93 87 80 92 105 152 150 135 150 153 104 23 227 163 252 281 334 9 39 1 30 68 25 19 74 53 339 325 353 5 359 322 295 280 257 254 283 306 311 300 334 358 295 291 309 298 273 300 335 342 351 356 14 38 39 36 30 15 9 20 25 18 14
16 207 169 94 50 1 4 17 52 76 43 21 55 36 10 17 4 332 308 90 110 75 90 147 133 96 81 72 80 114 196 156 135 162 167 144 171 196 199 233 221 347 4 20 6 25 67 25 6 58 45 314 314 350 346 338 317 291 274 244 224 243 321 318 307 321 315 284 312 337 324 295 321 335 343 358 10 24 33 29 32 35 20 13 18 19 16 13
5 264 90 102 78 1 10 37 40 71 61 355 349 24 16 340 338 20 57 8 60 64 90 163 133 87 60 50 44 35 208 169 151 222 178 164 225 180 161 149 95 85 67 76 40 15 98 88 38 69 64 295 304 341 345 347 346 311 274 235 184 131 330 316 309 299 275 231 213 244 262 301 325 337 351 5 15 27 31 24 23 25 19 17 17 14 11 8